Location: Zerbst
(51.9650°N, 12.0766°E)
Time: 11:42:05
(UTC+02:00)

ISS - Pass Details

Date: 16 May 2017
Orbit: 402 x 409 km, 51.6° (Epoch: 24 May)

Event Time Altitude Azimuth Distance (km) Brightness Sun altitude
Exits shadow 02:32:08 32° 147° (SSE) 717 -2.9 -16.6°
Drops below altitude 10° 02:35:00 10° 87° (E) 1,465 -0.7 -16.4°
Sets 02:37:12 0° 77° (ENE) 2,326 0.5 -16.3°
